Time,TemperatureF,DewpointF,PressureIn,WindDirection,WindDirectionDegrees,WindSpeedMPH,WindSpeedGustMPH,Humidity,HourlyPrecipIn,Conditions,Clouds,dailyrainin,SolarRadiationWatts/m^2,SoftwareType,DateUTC
2013-08-01 02:06:00,46.0,46.0,-100.00,West,281,0.0,2.0,99,0.00,,,0.00,0.000000,,2013-08-01 10:06:00,
2013-08-01 04:08:00,46.0,46.0,-100.00,WNW,282,0.0,2.0,99,0.00,,,0.00,0.000000,,2013-08-01 12:08:00,
2013-08-01 04:13:00,46.0,46.0,-100.00,WNW,282,0.0,2.0,99,0.00,,,0.00,0.000000,,2013-08-01 12:13:00,
2013-08-01 05:07:00,46.0,46.0,-100.00,WNW,286,1.0,2.0,99,0.00,,,0.00,0.000000,,2013-08-01 13:07:00,
2013-08-01 07:07:00,46.0,46.0,-100.00,WNW,284,0.0,2.0,99,0.00,,,0.00,4.000000,,2013-08-01 15:07:00,
2013-08-01 07:15:00,46.0,46.0,-100.00,WNW,284,0.0,2.0,99,0.00,,,0.00,4.000000,,2013-08-01 15:15:00,
2013-08-01 07:22:00,46.0,46.0,-100.00,WNW,284,0.0,2.0,99,0.00,,,0.00,4.000000,,2013-08-01 15:22:00,
2013-08-01 10:55:00,55.0,51.0,-100.00,North,359,0.0,1.0,86,-99.99,,,0.00,116.000000,,2013-08-01 18:55:00,
2013-08-01 11:04:00,55.0,51.0,-100.00,North,359,0.0,1.0,86,-99.99,,,0.00,116.000000,,2013-08-01 19:04:00,
2013-08-01 11:59:00,64.0,49.0,-100.00,NNW,345,0.0,1.0,57,0.00,,,0.00,351.000000,,2013-08-01 19:59:00,
2013-08-01 12:05:00,64.0,49.0,-100.00,NNW,345,0.0,1.0,57,0.00,,,0.00,351.000000,,2013-08-01 20:05:00,
2013-08-01 12:14:00,64.0,49.0,-100.00,NNW,345,0.0,1.0,57,0.00,,,0.00,351.000000,,2013-08-01 20:14:00,
2013-08-01 12:22:00,64.0,49.0,-100.00,NNW,345,0.0,1.0,57,0.00,,,0.00,351.000000,,2013-08-01 20:22:00,
2013-08-01 12:58:00,73.0,51.0,-100.00,SE,139,0.0,2.0,46,0.00,,,0.00,650.000000,,2013-08-01 20:58:00,
2013-08-01 13:03:00,73.0,51.0,-100.00,SE,139,0.0,2.0,46,0.00,,,0.00,650.000000,,2013-08-01 21:03:00,
2013-08-01 13:53:00,75.0,54.0,-100.00,SE,137,2.0,4.0,48,0.00,,,0.00,695.000000,,2013-08-01 21:53:00,
2013-08-01 14:04:00,75.0,54.0,-100.00,SE,137,2.0,4.0,48,0.00,,,0.00,695.000000,,2013-08-01 22:04:00,
2013-08-01 14:13:00,75.0,54.0,-100.00,SE,137,2.0,4.0,48,0.00,,,0.00,695.000000,,2013-08-01 22:13:00,
2013-08-01 14:22:00,75.0,54.0,-100.00,SE,137,2.0,4.0,48,0.00,,,0.00,695.000000,,2013-08-01 22:22:00,
2013-08-01 14:58:00,73.0,52.0,-100.00,ESE,116,3.0,4.0,48,0.00,,,0.00,704.000000,,2013-08-01 22:58:00,
2013-08-01 15:04:00,73.0,52.0,-100.00,ESE,116,3.0,4.0,48,0.00,,,0.00,704.000000,,2013-08-01 23:04:00,
2013-08-01 15:13:00,73.0,52.0,-100.00,ESE,116,3.0,4.0,48,0.00,,,0.00,704.000000,,2013-08-01 23:13:00,
2013-08-01 15:51:00,75.0,54.0,-100.00,SE,134,2.0,4.0,47,0.00,,,0.00,683.000000,,2013-08-01 23:51:00,
2013-08-01 16:04:00,75.0,54.0,-100.00,SE,134,2.0,4.0,47,0.00,,,0.00,683.000000,,2013-08-02 00:04:00,
2013-08-01 16:13:00,75.0,54.0,-100.00,SE,134,2.0,4.0,47,0.00,,,0.00,683.000000,,2013-08-02 00:13:00,
2013-08-01 16:51:00,75.0,51.0,-100.00,SE,131,2.0,4.0,42,0.00,,,0.00,629.000000,,2013-08-02 00:51:00,
2013-08-01 16:59:00,75.0,51.0,-100.00,SE,131,2.0,4.0,42,0.00,,,0.00,629.000000,,2013-08-02 00:59:00,
2013-08-01 17:13:00,75.0,51.0,-100.00,SE,131,2.0,4.0,42,0.00,,,0.00,629.000000,,2013-08-02 01:13:00,
2013-08-01 17:22:00,75.0,51.0,-100.00,SE,131,2.0,4.0,42,0.00,,,0.00,629.000000,,2013-08-02 01:22:00,
2013-08-01 17:59:00,75.0,53.0,-100.00,SE,140,2.0,5.0,46,0.00,,,0.00,551.000000,,2013-08-02 01:59:00,
2013-08-01 18:13:00,75.0,53.0,-100.00,SE,140,2.0,5.0,46,0.00,,,0.00,551.000000,,2013-08-02 02:13:00,
2013-08-01 18:22:00,75.0,53.0,-100.00,SE,140,2.0,5.0,46,0.00,,,0.00,551.000000,,2013-08-02 02:22:00,
2013-08-01 18:45:00,73.0,57.0,-100.00,SE,127,2.0,4.0,56,0.00,,,0.00,328.000000,,2013-08-02 02:45:00,
2013-08-01 18:53:00,73.0,57.0,-100.00,SE,127,2.0,4.0,56,0.00,,,0.00,328.000000,,2013-08-02 02:53:00,
2013-08-01 19:12:00,73.0,57.0,-100.00,SE,127,2.0,4.0,56,0.00,,,0.00,328.000000,,2013-08-02 03:12:00,
2013-08-01 19:22:00,73.0,57.0,-100.00,SE,127,2.0,4.0,56,0.00,,,0.00,328.000000,,2013-08-02 03:22:00,